GFSCGP_500_spd_132.txt.gz
Wind_Speed
67 72 73 68 63 59 55 55 51 47 43 46 46 46 39 34 38 35 40 47 49 49 53 55 55 57 55 51 50 48 43 41 42 42 40 41 40 40 42 42 43 46 47 48
68 72 65 68 64 61 59 56 55 49 40 43 47 45 42 33 39 36 37 44 48 49 52 55 56 55 56 54 51 51 48 47 47 45 44 42 43 45 46 46 46 47 49 51
69 64 68 64 62 63 61 59 56 49 39 42 46 45 39 37 39 39 39 44 47 48 50 56 60 59 58 58 56 54 54 51 50 47 46 45 46 47 47 49 45 47 50 49
66 60 65 63 61 62 62 58 53 46 38 42 47 46 38 39 38 36 36 39 44 43 46 51 58 63 64 63 62 60 59 57 56 49 45 47 47 49 49 50 46 46 47 47
64 65 67 64 60 56 55 50 45 38 37 40 44 45 38 38 32 29 33 36 40 43 44 49 54 56 58 58 61 64 63 59 57 56 54 57 56 55 53 52 50 49 48 50
54 56 56 51 49 46 46 42 43 37 41 45 44 45 37 38 33 32 31 34 36 38 38 39 44 51 53 55 54 51 53 55 57 57 55 55 55 53 52 51 50 54 58 55
49 52 50 51 49 49 50 48 46 43 46 47 42 47 39 37 34 30 29 28 31 34 32 35 37 38 41 44 46 48 49 49 50 50 49 49 49 49 49 49 44 44 45 43
45 48 44 49 48 52 55 53 53 54 52 51 46 48 42 39 37 29 28 29 31 30 28 32 31 32 33 34 36 35 34 39 41 41 42 40 32 30 29 29 34 39 39 41
28 36 38 40 45 48 49 50 50 51 49 48 45 46 45 37 29 30 30 28 29 27 28 28 28 28 28 25 24 29 31 30 26 26 23 22 24 26 28 30 31 34 42 44
25 28 38 36 39 40 48 45 49 49 49 48 45 44 45 37 28 29 30 30 28 25 27 25 25 24 22 23 23 22 22 21 19 20 21 23 25 27 26 28 32 36 40 44
27 28 36 34 43 41 48 46 49 48 47 47 45 46 45 34 32 29 30 26 25 28 27 24 24 23 24 24 17 18 20 21 21 24 25 28 30 29 28 31 30 27 29 27
23 33 31 42 33 41 46 48 50 46 46 44 41 46 41 36 34 29 28 26 24 22 21 22 23 23 25 25 24 26 23 22 23 24 24 24 26 29 32 32 32 32 33 31
23 28 26 37 42 44 47 46 47 47 42 38 35 39 39 35 30 34 31 28 23 21 20 17 16 22 22 20 23 25 23 21 23 22 25 27 29 29 31 32 33 34 35 35
28 29 25 35 43 37 43 41 44 47 43 37 34 27 31 34 25 25 29 26 22 23 16 15 21 25 21 22 24 22 21 20 21 24 26 25 28 28 31 31 32 33 34 36
21 27 25 27 35 30 38 39 42 46 41 33 27 22 24 29 27 24 21 21 16 19 16 15 17 22 19 19 20 18 17 20 23 27 26 26 29 32 34 34 33 31 32 32
29 25 24 26 27 28 34 37 41 41 39 34 33 30 30 31 26 19 14 17 10 15 17 17 21 20 18 17 18 15 21 26 26 23 26 30 33 34 33 33 33 33 33 34
34 25 27 28 28 29 40 41 43 38 35 31 31 27 30 30 27 19 16 14 10 10 23 22 25 26 19 11 15 20 22 21 24 28 30 31 32 30 30 31 32 33 33 34
32 26 22 27 27 30 34 37 38 32 25 22 24 26 26 24 21 18 16 15 18 18 23 27 27 19 13 15 16 19 22 25 28 30 29 28 28 28 28 30 31 32 33 34
29 23 23 27 28 30 30 30 31 31 27 23 21 17 16 17 21 24 19 19 20 18 21 28 23 21 20 16 19 23 26 28 28 28 28 27 28 29 30 32 32 33 31 33
27 30 25 26 25 28 27 29 25 28 29 27 21 22 19 16 16 21 21 23 21 21 20 31 23 17 18 20 25 27 27 27 28 28 28 29 30 30 31 33 33 33 30 29
23 23 21 23 27 20 20 31 26 29 26 27 29 25 26 19 16 22 18 21 23 22 21 23 20 19 21 24 23 25 27 28 28 29 30 31 32 32 32 33 33 31 27 22
23 22 21 24 26 18 21 21 22 25 17 22 21 27 26 25 20 17 16 19 20 21 20 19 20 23 20 20 22 24 26 27 28 29 30 31 32 32 32 32 30 26 22 19
23 20 22 17 18 22 18 14 18 18 15 18 25 27 28 20 19 18 17 16 16 17 17 19 18 18 18 20 24 25 26 27 29 30 31 33 33 32 31 29 26 23 19 18
23 18 21 18 17 19 19 15 18 17 15 33 27 26 23 20 17 16 16 17 18 17 16 16 15 15 17 23 27 29 29 29 32 33 34 35 34 32 29 25 23 20 17 16
24 21 15 16 21 17 16 16 14 17 21 28 27 23 18 17 17 17 16 15 15 15 14 14 14 15 19 23 24 28 30 30 33 34 35 35 34 29 24 20 19 17 13 15
23 26 24 23 21 19 18 21 27 21 28 21 17 16 15 16 15 15 16 15 14 13 14 15 17 19 23 25 26 30 31 32 32 32 34 30 25 22 21 16 15 14 12 13

GFSCGP_500_spd_135.txt.gz
Wind_Speed
73 73 72 64 64 65 64 61 57 55 51 46 47 47 39 36 38 37 35 37 39 40 44 45 45 47 48 47 46 47 49 50 49 43 43 39 37 40 42 43 44 47 47 46
73 76 65 64 65 62 64 60 58 54 48 45 47 48 44 40 38 38 36 37 39 41 43 46 47 47 46 47 45 44 43 44 43 40 39 40 41 42 42 45 44 45 45 47
67 64 68 71 69 63 61 61 58 52 47 44 44 44 42 37 40 39 37 37 39 42 43 44 45 46 45 46 46 47 46 44 44 43 42 43 44 44 45 46 45 45 46 46
60 62 71 71 67 61 60 58 55 53 49 43 42 42 41 35 36 38 39 37 35 38 40 42 44 45 46 48 49 49 50 49 47 47 48 49 50 50 52 51 51 49 50 47
58 59 69 72 66 61 59 55 53 51 45 40 42 44 43 39 39 39 37 37 36 36 37 39 42 43 44 45 48 49 51 55 54 53 56 57 58 52 54 53 53 51 49 48
44 49 57 59 54 53 56 53 49 46 38 41 44 45 43 41 40 37 37 36 35 35 34 36 39 40 41 43 45 45 47 50 49 46 48 51 52 51 52 52 49 45 47 46
40 46 51 54 51 49 54 53 50 46 45 48 46 48 45 43 40 37 35 34 33 33 32 33 36 39 39 36 39 39 40 44 46 45 48 48 47 47 47 44 40 41 38 38
20 48 48 50 54 52 54 53 58 59 58 56 51 52 46 43 39 36 34 31 30 30 31 31 33 33 31 33 33 32 33 37 40 40 39 36 34 36 38 34 35 32 31 32
23 27 47 45 45 50 51 51 50 51 53 54 52 50 46 41 39 37 33 31 30 30 30 29 29 29 29 32 32 31 31 32 35 34 35 36 34 30 27 25 27 30 31 33
13 23 36 35 41 44 43 44 50 50 51 52 50 49 45 41 37 33 29 31 32 32 29 28 28 28 31 32 30 27 26 27 29 30 26 24 24 23 23 26 28 29 31 33
16 23 34 35 39 41 47 46 43 49 50 51 50 49 40 37 35 31 32 34 34 31 29 30 31 31 31 31 30 30 28 28 26 25 23 22 24 24 24 24 27 30 33 35
18 22 36 34 28 33 35 41 44 49 48 48 44 43 41 38 34 31 31 34 32 30 28 28 27 29 28 29 31 30 27 25 23 22 22 22 22 23 25 27 27 29 30 35
17 19 32 30 30 34 40 42 38 43 42 43 42 44 43 40 37 35 32 31 29 27 26 24 25 27 28 31 33 30 28 25 25 23 22 22 23 26 26 26 27 31 33 33
17 23 33 32 34 35 32 40 40 43 41 38 38 36 40 39 35 38 31 29 25 24 24 22 25 26 27 29 26 23 21 20 21 24 22 23 25 25 27 29 32 34 35 35
17 20 19 36 35 34 32 31 39 47 37 32 27 24 25 33 33 30 31 28 24 25 23 26 26 29 30 28 26 24 21 23 22 21 24 27 29 28 30 32 33 34 34 35
18 20 16 22 31 32 28 30 34 46 39 31 25 28 25 32 32 30 25 27 22 26 30 27 22 21 20 23 26 21 20 18 18 24 26 26 26 28 30 29 27 29 31 33
19 22 17 22 24 26 31 32 38 45 41 31 30 24 25 28 30 25 21 25 29 25 31 25 18 19 23 24 22 18 15 17 21 20 23 26 26 27 26 25 28 30 34 36
17 19 20 26 24 24 28 28 31 40 42 34 29 27 27 26 32 22 24 29 27 24 16 15 22 23 24 21 15 14 17 23 21 23 25 25 26 26 25 28 31 34 36 35
13 20 20 18 22 22 25 29 31 35 36 32 26 23 26 27 25 27 28 19 21 21 20 17 24 23 21 19 17 19 21 22 23 26 26 28 28 28 29 31 33 36 36 34
16 14 15 19 18 24 27 28 26 27 26 25 24 24 22 20 22 23 26 23 22 25 21 17 20 23 23 22 24 24 22 23 25 26 29 29 30 31 33 34 35 36 35 33
13 12 17 18 20 19 23 29 29 32 27 24 22 24 21 22 23 27 26 25 25 25 23 20 14 22 26 18 21 21 24 25 25 28 30 31 32 33 33 34 34 34 32 31
19 17 17 20 18 20 19 24 23 24 27 25 20 19 21 24 19 17 22 21 22 24 23 20 17 23 27 24 21 21 20 24 27 29 30 31 30 31 31 31 31 31 29 26
18 18 15 18 19 9 12 16 21 21 24 22 24 22 22 23 19 16 15 18 19 22 21 19 18 19 19 18 15 16 21 22 24 27 29 31 32 32 32 32 30 29 25 22
18 16 14 15 16 15 15 15 16 17 21 19 19 21 27 22 22 17 20 16 15 16 17 18 18 17 15 15 15 18 20 24 25 28 30 32 32 31 35 33 30 24 21 19
16 17 17 14 14 17 17 12 11 16 13 18 20 21 23 22 16 16 15 14 15 15 15 15 16 16 16 16 18 20 23 26 26 29 31 32 31 32 34 31 23 20 18 16
19 15 15 15 17 15 22 19 18 13 13 26 33 32 22 19 15 15 14 16 16 16 17 17 17 16 17 18 21 23 25 26 27 30 33 33 33 33 33 26 22 18 15 14

GFSCGP_500_spd_138.txt.gz
Wind_Speed
76 78 76 70 66 61 61 62 60 62 59 49 46 42 41 38 38 35 34 33 32 34 36 38 37 39 41 41 40 40 43 43 42 39 39 40 41 45 48 48 43 40 42 45
73 79 70 67 66 63 63 64 62 60 59 48 48 47 40 42 43 40 35 35 35 35 38 40 39 38 39 41 40 38 39 40 41 41 40 39 39 39 39 37 37 41 43 44
62 63 67 72 72 70 65 63 65 59 56 45 47 48 44 44 41 41 39 37 37 37 38 40 40 41 39 37 37 38 38 37 37 37 36 37 38 38 39 40 41 44 46 48
50 54 67 72 71 70 66 61 62 57 60 49 47 44 44 42 41 42 40 37 37 38 40 41 40 40 41 41 38 37 37 37 37 39 38 39 40 41 43 45 47 48 52 49
46 55 60 69 71 70 66 63 58 56 50 46 47 43 45 43 41 40 39 39 39 35 37 39 40 41 42 40 37 34 36 38 40 42 43 44 46 48 49 51 50 48 51 51
35 40 55 59 52 63 61 60 59 53 47 49 46 42 43 43 38 36 38 35 37 35 35 39 39 40 40 39 36 35 36 36 38 41 43 46 47 45 46 49 51 52 51 46
34 38 45 54 51 51 52 58 57 43 43 51 47 47 29 46 43 41 38 37 35 35 35 37 39 37 37 38 36 33 32 33 36 38 39 42 45 41 42 46 46 44 42 40
15 36 43 53 52 53 55 66 62 65 62 53 45 51 52 53 46 42 37 36 35 36 35 36 39 38 38 37 37 33 31 29 29 32 35 40 40 38 36 36 36 39 38 36
15 21 34 39 49 47 53 48 44 32 45 33 52 52 52 53 46 42 39 39 37 37 38 38 37 37 37 34 30 28 28 28 29 31 32 34 34 34 36 35 31 31 31 32
10 23 28 35 37 41 40 47 40 38 40 40 45 53 54 51 48 42 39 39 37 36 35 35 36 36 32 30 29 30 28 28 28 29 30 31 34 30 26 27 28 30 33 33
5 17 22 38 39 49 49 43 39 36 37 36 35 40 46 43 41 39 36 34 34 33 35 36 36 33 31 30 30 28 29 29 28 29 30 32 29 26 26 30 32 33 32 32
8 20 16 33 34 35 43 46 43 42 44 36 29 36 49 45 42 38 34 35 36 37 36 34 33 32 29 29 29 30 30 29 29 29 31 28 25 25 28 29 31 32 30 32
16 18 28 34 28 36 39 40 40 37 33 40 34 41 43 38 40 38 36 36 37 36 34 33 32 32 31 31 31 31 31 30 30 30 26 24 24 28 30 31 30 30 31 33
21 19 26 30 21 31 44 45 40 36 33 35 27 35 40 41 41 39 39 38 36 35 34 33 33 33 31 30 30 31 33 30 32 31 26 28 30 30 30 30 31 31 33 35
17 12 25 26 26 28 35 43 43 36 26 27 36 33 33 37 38 39 38 38 37 34 32 32 33 31 29 30 32 32 30 30 29 27 25 27 29 28 30 31 32 34 35 33
11 16 32 18 30 32 33 37 43 34 28 30 29 30 28 37 38 40 38 35 31 30 33 32 30 28 28 28 28 30 31 29 26 26 24 25 27 29 27 31 34 34 30 30
18 19 19 20 17 29 34 40 40 31 34 24 25 31 33 36 39 40 38 34 32 32 33 30 28 27 24 25 30 29 29 26 27 22 21 21 25 27 29 31 32 30 27 31
18 20 16 18 23 25 22 35 48 42 39 32 30 32 34 38 38 38 37 36 37 36 32 29 30 28 26 25 24 21 21 23 22 21 22 25 26 27 27 29 29 29 30 33
15 19 21 24 25 25 25 28 46 41 37 32 32 33 32 36 41 38 34 33 32 31 27 28 30 29 28 25 23 21 20 20 22 22 25 26 27 27 29 31 32 32 33 35
18 20 24 18 21 23 30 26 44 40 40 41 34 36 34 32 34 31 30 26 28 28 27 29 24 26 23 24 23 23 22 21 22 24 25 25 27 30 32 33 35 36 37 37
18 20 13 18 19 21 24 22 31 41 36 33 26 23 23 25 22 27 25 27 23 20 28 27 28 24 17 22 20 18 23 21 20 20 23 26 28 30 32 33 35 36 35 34
14 17 13 18 18 23 24 25 29 31 29 25 24 26 24 25 29 30 29 28 23 21 22 25 26 24 18 20 24 21 18 16 16 19 20 24 26 29 32 35 37 36 34 32
16 16 16 15 17 18 23 25 30 30 30 24 23 26 22 25 23 22 18 20 21 21 23 26 23 23 18 19 23 25 18 15 15 18 21 23 26 28 32 35 37 37 34 30
14 14 13 15 19 13 18 23 23 27 27 26 23 19 22 22 18 15 14 13 20 21 20 22 22 21 18 18 19 18 17 17 19 22 22 24 27 28 32 34 35 36 35 28
15 16 16 16 15 17 19 23 25 21 23 24 21 21 20 21 22 18 16 18 16 15 14 15 17 18 18 19 18 18 19 20 22 23 25 26 28 29 33 34 35 34 31 23
16 16 16 16 18 17 16 18 19 19 21 23 25 23 22 18 24 21 14 15 15 15 16 17 18 18 17 18 19 20 21 22 24 27 26 27 31 33 33 36 33 33 24 20

GFSCGP_500_spd_141.txt.gz
Wind_Speed
81 79 83 77 70 65 58 59 61 58 53 59 50 49 41 43 39 40 37 36 32 30 29 30 32 39 40 38 36 36 35 36 38 37 37 38 37 40 42 44 43 43 45 38
63 79 75 72 69 67 65 54 48 54 46 60 53 50 42 43 40 39 39 38 34 32 31 30 33 32 35 34 37 37 38 39 39 39 39 37 37 40 40 41 41 40 38 37
45 65 70 73 71 69 67 59 45 45 55 58 54 49 45 45 43 42 41 39 37 34 35 35 28 32 34 33 36 38 39 37 38 37 35 36 36 38 39 37 37 36 37 40
31 44 65 72 73 68 67 59 45 47 46 58 50 50 50 49 47 43 41 41 41 38 38 39 34 32 34 34 35 36 36 36 35 31 32 33 34 36 35 35 37 40 42 45
27 38 48 66 71 70 62 54 52 39 38 34 39 40 43 47 46 44 40 40 42 42 40 39 37 34 34 34 33 33 33 34 33 32 31 31 32 33 36 37 40 42 45 46
37 29 40 37 56 62 49 41 45 40 38 38 33 48 39 44 49 46 44 42 41 41 41 38 39 37 32 31 33 31 31 31 32 31 30 31 33 37 38 39 40 41 43 45
19 37 34 44 28 54 49 46 44 41 37 45 43 45 28 35 44 46 41 41 44 49 42 41 37 36 34 35 34 34 32 31 29 29 31 31 34 37 39 41 40 42 43 42
13 40 42 40 41 45 55 54 55 59 63 54 34 43 39 37 48 46 42 46 45 34 38 40 41 33 33 35 35 35 36 33 32 29 30 32 34 36 37 39 40 40 38 39
3 24 32 34 42 43 55 55 57 38 40 29 33 35 43 50 45 46 50 43 37 43 37 31 34 37 36 34 36 37 36 34 32 31 32 33 33 34 37 37 37 34 35 34
3 24 27 30 32 42 44 58 53 42 36 37 35 42 46 56 54 48 45 42 42 39 39 39 38 36 34 34 36 37 37 35 32 31 31 31 32 33 33 34 31 31 31 33
13 12 22 32 43 41 42 46 49 41 30 41 34 34 37 48 52 50 45 45 41 39 38 37 35 34 36 37 37 37 35 31 30 29 28 28 28 28 30 31 30 29 33 35
9 17 17 14 29 40 43 48 50 49 39 45 30 44 37 47 48 45 44 41 40 39 38 36 36 37 39 38 36 34 31 29 28 26 25 25 26 28 31 30 28 32 34 34
9 16 21 29 35 44 45 47 49 42 35 38 35 42 49 48 43 43 42 38 36 35 35 36 38 39 38 35 34 31 29 28 27 26 25 25 28 30 28 29 32 34 34 35
9 17 18 20 26 36 38 43 55 45 35 39 32 40 41 35 42 40 40 38 37 37 38 39 38 37 36 33 31 31 30 29 28 28 28 30 29 28 28 33 35 35 36 38
15 11 17 31 35 37 41 46 46 40 47 24 27 27 35 32 35 38 37 37 37 37 37 36 35 34 34 33 33 31 30 30 30 29 31 30 30 31 32 31 35 35 36 37
16 12 14 20 29 35 39 45 34 36 40 43 36 34 31 30 39 40 39 39 39 37 36 34 35 34 34 34 32 31 31 30 30 28 27 27 28 28 29 31 34 33 36 37
9 13 14 30 23 30 35 45 41 36 31 37 30 39 32 36 41 41 41 41 40 39 39 37 35 35 34 32 30 29 28 28 29 32 31 27 27 27 28 28 31 33 34 36
22 22 17 18 29 41 36 46 43 34 38 35 28 34 34 39 45 46 45 42 41 40 37 36 36 35 31 29 26 25 26 28 30 25 26 26 26 26 27 30 32 33 36 37
15 14 10 14 29 35 37 39 33 41 32 27 33 35 41 44 42 45 45 43 40 37 35 34 33 31 28 27 26 25 24 21 20 21 23 24 25 29 30 31 33 33 34 33
18 16 15 23 27 39 43 47 48 28 22 38 36 36 38 40 40 41 43 41 39 36 35 33 31 32 29 28 29 28 23 21 21 21 22 22 25 26 28 29 28 29 33 36
19 25 20 17 18 24 29 44 42 33 19 30 37 35 40 46 42 42 41 39 36 34 35 30 27 26 27 28 26 26 21 22 24 25 24 21 19 19 20 24 27 29 32 36
14 11 19 15 17 34 20 33 39 20 28 27 35 39 36 32 38 38 37 36 39 33 30 27 28 29 29 25 19 23 22 20 17 19 18 16 17 18 20 23 25 28 31 36
13 12 18 15 15 22 23 32 38 26 32 24 29 26 23 22 24 24 27 26 25 25 24 25 29 32 32 29 26 27 28 28 20 20 18 20 19 20 21 25 28 33 35 37
14 15 14 17 22 18 20 32 37 28 27 22 22 21 20 21 20 22 22 22 24 25 23 23 23 25 27 25 24 24 24 27 26 24 22 22 23 25 24 26 32 37 38 39
11 14 20 23 20 20 21 28 34 27 26 23 22 23 26 21 23 19 22 18 17 21 22 21 21 22 23 24 21 22 22 24 25 24 23 24 26 27 28 29 31 36 40 37
14 15 16 17 19 18 20 26 27 26 25 21 20 18 19 23 22 20 17 15 16 15 15 16 16 16 16 18 21 22 25 24 23 24 24 26 27 27 31 30 31 36 38 38

GFSCGP_500_spd_147.txt.gz
Wind_Speed
39 47 53 58 73 75 71 68 66 63 59 59 55 58 55 52 50 48 44 39 31 28 27 20 19 26 28 33 34 32 27 33 40 29 35 33 29 33 33 33 33 33 34 36
20 44 43 47 60 74 71 70 65 59 56 60 58 60 58 55 48 45 44 41 34 30 27 21 21 22 22 28 32 32 31 39 33 27 26 27 31 32 34 31 32 33 34 37
12 13 27 46 60 75 73 72 65 59 57 59 55 55 52 53 50 45 42 39 38 34 30 26 25 22 22 24 24 26 30 32 28 27 20 28 28 28 31 34 31 34 36 36
10 14 24 49 63 74 74 69 64 48 38 54 56 55 52 49 52 49 41 37 38 37 35 29 28 25 24 23 23 25 30 28 10 23 19 25 21 29 28 30 32 34 34 34
3 9 8 48 51 67 72 65 63 53 42 38 39 36 50 52 50 47 41 38 38 37 36 33 31 29 27 26 23 27 26 21 19 23 25 26 29 28 29 27 31 32 30 31
8 17 14 24 51 63 63 61 58 56 51 53 44 41 48 52 47 42 44 43 39 37 35 34 33 31 29 31 35 32 22 23 25 23 18 22 25 28 29 32 32 28 28 32
20 14 16 14 55 56 65 64 61 60 57 49 51 43 42 43 41 42 44 44 39 37 35 34 34 29 33 36 36 35 28 24 22 21 24 23 28 25 27 27 26 28 30 33
12 9 24 23 59 51 62 60 63 64 58 43 49 44 38 33 30 40 42 41 39 38 36 35 35 36 38 37 31 26 19 20 24 23 25 25 23 27 27 25 22 24 31 34
11 14 19 29 35 53 61 67 59 56 55 39 48 41 31 33 35 37 40 39 38 38 38 38 40 37 35 33 29 27 22 22 25 25 24 20 22 23 24 26 28 32 34 36
10 0 12 22 42 55 58 54 56 55 50 39 47 42 44 36 47 44 34 37 41 43 42 43 43 36 32 30 28 25 24 24 22 21 25 26 27 27 27 29 32 33 33 34
4 7 8 33 39 56 64 52 52 55 42 37 38 39 34 36 42 46 40 41 46 47 46 42 38 34 26 23 30 31 29 27 29 29 29 29 28 27 28 29 30 32 32 32
5 11 21 26 24 55 59 48 48 61 47 39 33 35 34 36 40 43 46 45 44 44 40 36 33 29 21 31 33 29 28 30 32 30 29 28 27 26 27 28 30 32 33 34
4 6 18 33 18 49 64 43 43 60 49 33 40 41 39 41 43 43 40 35 34 33 33 33 28 28 33 33 30 28 30 32 33 31 28 28 27 27 28 29 31 33 34 35
2 5 15 33 28 33 69 58 50 59 55 32 36 44 48 46 46 45 44 38 33 33 32 35 38 38 36 33 31 31 31 33 33 32 30 29 28 28 28 31 31 32 33 34
7 7 15 29 35 28 66 66 52 56 58 40 43 44 51 48 47 47 47 45 42 38 36 39 37 33 32 33 32 33 34 34 33 31 30 28 26 27 29 29 29 31 32 31
3 7 13 28 33 33 61 68 57 49 29 36 34 36 44 47 55 48 47 45 41 39 36 35 35 33 32 35 36 36 35 34 33 30 26 24 24 26 26 28 26 28 27 23
2 6 19 20 31 26 47 67 44 46 35 46 40 42 28 35 46 52 41 31 31 38 39 37 33 34 35 36 36 35 34 32 29 25 24 23 24 25 27 26 29 30 25 21
11 13 15 14 28 35 45 67 57 51 46 36 40 42 31 22 36 38 33 31 33 34 34 37 37 36 36 35 34 32 28 25 22 23 24 24 24 25 26 28 27 23 23 24
14 8 11 15 18 33 45 48 37 65 41 30 29 43 40 31 28 38 37 35 36 35 35 35 35 34 33 32 27 24 23 22 23 24 23 24 25 26 25 23 22 20 21 22
14 7 12 17 24 26 46 45 49 60 49 37 36 31 60 33 32 38 35 34 30 28 29 31 31 30 27 25 24 23 24 23 24 24 26 26 24 23 24 23 21 22 20 19
9 16 21 24 25 31 52 58 32 22 32 50 23 28 15 13 21 22 21 28 28 27 26 27 28 27 24 23 24 24 23 24 25 26 27 27 25 27 26 23 24 21 21 20
10 16 17 23 25 25 44 36 30 20 20 41 20 15 18 12 10 17 22 31 35 34 31 29 26 25 25 25 24 24 26 27 28 27 27 29 31 28 27 27 23 22 22 23
14 7 18 21 26 17 12 26 6 32 19 24 29 19 16 23 22 27 30 31 30 29 28 28 28 27 27 26 26 28 28 26 27 25 25 23 27 27 28 26 25 25 25 26
12 12 14 17 18 16 22 17 11 25 14 27 25 26 26 23 30 32 30 30 28 29 31 32 31 30 29 29 29 26 26 27 27 28 28 28 28 30 27 26 29 28 26 27
10 13 15 16 16 16 12 11 12 18 18 19 26 30 24 26 29 30 32 31 33 34 33 32 32 31 32 31 37 29 28 29 30 31 31 30 30 34 37 38 33 31 28 30
9 14 18 15 18 18 14 16 15 14 16 23 27 34 28 29 24 26 22 23 22 25 27 23 24 27 27 24 20 24 26 27 29 29 31 31 32 32 32 33 33 33 32 32